Southampton Airport

Airport
ICAO code: 
EGHI
IATA Code: 
SOU
Summary
ICAO Region: 
EUR
Territory: 
Location: 
Eastleigh,Southampton, England.,
Serving: 
Southampton
Elevation: 
44 ft
Coordinates: 
Aerial View: 
50° 56' 59.319" N, 1° 21' 23.389" W
Metar
Observation
EGHI 221120Z 32004KT 270V040 9999 BKN018 06/02 Q1039
Station
Southampton / Weather Centre
Date/Time
2022-01-22 11:20:00
Wind direction
320°
Wind speed
04 kts
Lowest cloud amount
broken clouds
Temperature
6°C
Dew point
2°C
Humidity
75%
QNH
1039 hPa
Weather condition
n/a

Description

Small domestic and international airport serving the city of Southampton and environs; has co-located railway station.

Climatology

Temperate Marine climate/Oceanic climate (Köppen climate classification Cfb). Moderately cool summer and comparatively warm winter with a temperature range of only 14°C. Prevailing south-westerly winds from the Atlantic Ocean.

Runways

Designator Length Width Surface Rops
2/20 1723 37 ASP Yes/Yes
Airport map: 
Aerial View: 

SKYbrary Partners:

Safety knowledge contributed by: